This is the latest recevied weather packets stored in our database for station/object YM7KGL-1. If no packets are shown the sender has not sent any weather packets the latest 10 day(s).
| Time | Temp. | Humidity | Pressure | Rain* | Wind** | Luminosity | Snow |
|---|---|---|---|---|---|---|---|
| 1777716534 | 17.78° C | 51% | 1016.6 hPa | - | - | - | - |
| 1777716042 | 17.78° C | 51% | 1016.6 hPa | - | - | - | - |
| 1777715733 | 17.78° C | 50% | 1016.7 hPa | - | - | - | - |
| 1777714832 | 18.33° C | 51% | 1016.9 hPa | - | - | - | - |
| 1777713932 | 18.33° C | 51% | 1016.9 hPa | - | - | - | - |
| 1777713032 | 17.78° C | 51% | 1016.9 hPa | - | - | - | - |
| 1777712131 | 17.22° C | 52% | 1017.1 hPa | - | - | - | - |
| 1777711971 | 16.67° C | 52% | 1017.2 hPa | - | - | - | - |
| 1777711071 | 16.11° C | 52% | 1017.2 hPa | - | - | - | - |
| 1777710170 | 15.56° C | 52% | 1017.3 hPa | - | - | - | - |
| 1777709270 | 15° C | 53% | 1017.4 hPa | - | - | - | - |
| 1777708982 | 15° C | 52% | 1017.5 hPa | - | - | - | - |
| 1777708369 | 15° C | 52% | 1017.5 hPa | - | - | - | - |
| 1777708349 | 15° C | 52% | 1017.6 hPa | - | - | - | - |
| 1777707551 | 12.22° C | 54% | 1017.3 hPa | - | - | - | - |
| 1777707447 | 14.44° C | 52% | 1017.4 hPa | - | - | - | - |
| 1777706547 | 14.44° C | 52% | 1017.2 hPa | - | - | - | - |
| 1777706223 | 11.67° C | 54% | 1017.5 hPa | - | - | - | - |
| 1777705652 | 13.89° C | 53% | 1017.3 hPa | - | - | - | - |
| 1777703847 | 12.78° C | 53% | 1017.1 hPa | - | - | - | - |
| 1777702946 | 12.22° C | 54% | 1017.3 hPa | - | - | - | - |
| 1777702046 | 11.67° C | 54% | 1017.5 hPa | - | - | - | - |
| 1777701145 | 11.67° C | 54% | 1017.5 hPa | - | - | - | - |
| 1777700389 | 11.67° C | 54% | 1017.4 hPa | - | - | - | - |
| 1777700245 | 11.67° C | 54% | 1017.4 hPa | - | - | - | - |
* Rain since midnight (hover to see other rain measurements)
** Current wind speed in m/s (hover to see current wind gust speed)